Location: Bishop's University Astronomical Observatory
(45.3661°N, 71.8475°W)
Time: 10:51:48
(UTC-05:00)

CZ-4C R/B - Visible Passes

Search period start: 28 February 2015 00:00
Search period end: 10 March 2015 01:00
Orbit: 777 x 1226 km, 63.4° (Epoch: 27 February)

Date Brightness Start Highest point End Pass type
(mag) Time Alt. Az. Time Alt. Az. Time Alt. Az.
28 Feb 4.5 19:06:08 10° NNW 19:10:00 16° N 19:14:01 10° NE visible
28 Feb 4.0 20:54:51 10° NNW 20:59:12 29° N 20:59:12 29° N visible
28 Feb 5.0 22:43:07 10° NW 22:44:24 17° NW 22:44:24 17° NW visible
01 Mar 4.2 19:40:02 10° NNW 19:44:44 20° NNE 19:46:44 18° NE visible
01 Mar 4.0 21:28:17 10° NNW 21:31:55 32° NNW 21:31:55 32° NNW visible
01 Mar 5.3 23:16:58 10° NW 23:17:07 11° NW 23:17:07 11° NW visible
02 Mar 4.5 18:24:40 10° NNW 18:28:24 16° N 18:32:23 10° NE visible
02 Mar 3.8 20:13:35 10° NNW 20:19:16 29° NNE 20:19:28 29° NE visible
02 Mar 4.4 22:01:49 10° NW 22:04:39 28° NW 22:04:39 28° NW visible
03 Mar 4.3 18:58:43 10° NNW 19:03:11 19° NNE 19:07:01 13° NE visible
03 Mar 3.5 20:47:02 10° NNW 20:52:13 41° NNE 20:52:13 41° NNE visible
03 Mar 4.8 22:35:34 10° NW 22:37:26 20° NW 22:37:26 20° NW visible
04 Mar 3.9 19:32:20 10° NNW 19:37:46 26° NNE 19:39:49 23° NE visible
04 Mar 3.6 21:20:32 10° NW 21:25:01 45° NNW 21:25:01 45° NNW visible
04 Mar 5.2 23:09:51 10° WNW 23:10:13 11° WNW 23:10:13 11° WNW visible
05 Mar 4.3 18:17:22 10° NNW 18:21:36 18° NNE 18:26:11 10° NE visible
05 Mar 3.3 20:05:47 10° NNW 20:12:05 40° NE 20:12:38 39° NE visible
05 Mar 4.1 21:54:12 10° NW 21:57:51 33° NW 21:57:51 33° NW visible
06 Mar 4.0 18:51:03 10° NNW 18:56:14 24° NNE 19:00:18 15° ENE visible
06 Mar 2.9 20:39:15 10° NW 20:45:30 64° NNE 20:45:30 64° NNE visible
06 Mar 4.7 22:28:18 10° NW 22:30:43 20° WNW 22:30:43 20° WNW visible
07 Mar 3.5 19:24:32 10° NNW 19:30:38 35° NE 19:33:12 28° ENE visible
07 Mar 3.2 21:12:53 10° NW 21:18:25 58° WNW 21:18:25 58° WNW visible
07 Mar 5.3 23:03:31 10° WNW 23:03:38 10° WNW 23:03:38 10° WNW visible
08 Mar 4.1 19:09:46 10° NNW 19:14:42 22° NNE 19:20:06 10° ENE visible
08 Mar 2.9 20:58:00 10° NNW 21:04:43 58° NE 21:06:10 50° E visible
08 Mar 4.1 22:46:49 10° NW 22:51:23 33° W 22:51:23 33° W visible
09 Mar 3.7 19:43:18 10° NNW 19:49:10 32° NNE 19:53:59 16° E visible
09 Mar 2.7 21:31:33 10° NW 21:38:31 83° SW 21:39:12 74° S visible
09 Mar 4.9 23:21:36 10° WNW 23:24:26 17° W 23:24:26 17° W visible
